This demonstration page uses our WeatherBlox Daily Observations layout. Learn more.

Left ArrowRight Arrow

44.8408, -93.29828

Hourly Observations for December 5, 2019

Temp ( °F °C ) Dew Point ( °F °C ) Humidity (%) Winds ( mph kmh ) Pressure ( in mb ) Visibility ( mi km ) Precip ( " mm )
12:53 am 00:53 Clear with Mist and Fog 24 -4.4 20 -6.7 84 84 Calm 29.92 1013 5 8 0.00 0.00
1:53 am 01:53 Partly Cloudy with Mist and Fog 25 -3.9 22 -5.6 88 88 SSW 5 7 29.94 1014 5 8 0.00 0.00
2:53 am 02:53 Mostly Clear with Mist and Fog 23 -5 21 -6.1 92 92 ESE 5 7 29.94 1014 6 10 0.00 0.00
3:53 am 03:53 Cloudy with Mist and Fog 25 -3.9 22 -5.6 88 88 Calm 29.92 1013 6 10 0.00 0.00
4:53 am 04:53 Mostly Cloudy with Mist and Fog 23 -5 20 -6.7 88 88 ESE 5 7 29.91 1013 6 10 0.00 0.00
5:53 am 05:53 Partly Cloudy 24 -4.4 21 -6.1 88 88 SE 7 11 29.91 1013 7 11 0.00 0.00
6:53 am 06:53 Mostly Cloudy 25 -3.9 23 -5 92 92 SSE 5 7 29.91 1013 7 11 0.00 0.00
7:53 am 07:53 Mostly Cloudy 27 -2.8 23 -5 85 85 ESE 6 9 29.91 1013 7 11 0.00 0.00
8:53 am 08:53 Mostly Cloudy 27 -2.8 23 -5 85 85 SSE 7 11 29.91 1013 8 13 0.00 0.00
9:53 am 09:53 Mostly Cloudy 28 -2.2 24 -4.4 85 85 SSE 6 9 29.90 1013 9 14 0.00 0.00
10:53 am 10:53 Mostly Cloudy 30 -1.1 25 -3.9 82 82 S 7 11 29.88 1012 10 16 0.00 0.00
11:53 am 11:53 Mostly Cloudy 31 -0.6 26 -3.3 82 82 ESE 3 6 29.87 1011 10 16 0.00 0.00
12:53 pm 12:53 Mostly Cloudy 33 0.6 27 -2.8 78 78 Calm 29.85 1011 10 16 0.00 0.00
1:53 pm 13:53 Mostly Cloudy 36 2.2 29 -1.7 76 76 Calm 29.84 1011 10 16 0.00 0.00
2:53 pm 14:53 Mostly Cloudy 37 2.8 30 -1.1 76 76 W 6 9 29.86 1011 9 14 0.00 0.00
3:53 pm 15:53 Mostly Cloudy 35 1.7 29 -1.7 78 78 WNW 9 15 29.89 1012 10 16 0.00 0.00
4:53 pm 16:53 Mostly Cloudy 34 1.1 28 -2.2 79 79 WNW 8 13 29.93 1014 10 16 0.00 0.00
5:53 pm 17:53 Mostly Cloudy 34 1.1 27 -2.8 76 76 NW 8 13 29.97 1015 10 16 0.00 0.00
6:53 pm 18:53 Mostly Cloudy 33 0.6 26 -3.3 75 75 NNW 12 19 30.01 1016 10 16 0.00 0.00
7:53 pm 19:53 Mostly Cloudy 33 0.6 26 -3.3 75 75 NNW 16 26 30.06 1018 10 16 0.00 0.00
8:53 pm 20:53 Cloudy 33 0.6 25 -3.9 72 72 N 22 35 30.10 1019 10 16 0.00 0.00
9:53 pm 21:53 Cloudy 33 0.6 25 -3.9 72 72 N 14 22 30.14 1021 10 16 0.00 0.00
10:37 pm 22:37 Partly Cloudy 32 0 24 -4.4 73 73 N 13 20 30.19 1022 10 16 0.00 0.00
10:53 pm 22:53 Mostly Cloudy 32 0 24 -4.4 73 73 NNW 13 20 30.18 1022 10 16 0.00 0.00
11:53 pm 23:53 Mostly Cloudy 32 0 24 -4.4 73 73 NNW 12 19 30.20 1023 10 16 0.00 0.00

Powered by AerisWeather